Location: Poughquag
(41.6090°N, 73.6820°W)
Time: 20:52:10
(UTC-04:00)

JY1SAT - Pass Details

Date: 19 September 2024
Orbit: 527 x 537 km, 97.5° (Epoch: 10 October)

Event Time Altitude Azimuth Distance (km) Brightness Sun altitude
Exits shadow 22:08:53 12° 340° (NNW) 1,657 ? -34.3°
Drops below altitude 10° 22:09:13 10° 341° (NNW) 1,796 ? -34.3°
Sets 22:11:22 0° 345° (NNW) 2,695 ? -34.6°
